Location: A�t Bou Chrif
(32.7193°N, 5.2385°W)
Time: 03:02:31
(UTC+00:00)

Cosmos 292 Rocket - Pass Details

Date: 08 August 2020
Orbit: 674 x 694 km, 74.1° (Epoch: 20 September)

Event Time Altitude Azimuth Distance (km) Brightness Sun altitude
Rises 20:00:14 0° 339° (NNW) 3,027 7.9 -10.0°
Reaches altitude 10° 20:02:33 10° 336° (NNW) 2,110 7.1 -10.5°
Maximum altitude 20:07:14 62° 256° (WSW) 756 4.2 -11.4°
Drops below altitude 10° 20:11:53 10° 176° (S) 2,102 6.0 -12.2°
Enters shadow 20:13:48 - 173° (S) 2,858 6.6 -12.6°
